World > North America > United States > Minnesota

Balaton, Minnesota Regional Weather

Lat: 44.23N, Lon: 95.87W
Wx Zone: MNZ072Web Search

Helpful Tip: Type the letters wx in the search engine next time you need to find us.

Feedback
Balaton Weather Map
UTC Time: 11/24/2020, 12:15
Your Time:

Balaton, MN Regional Weather

Expires:202011241300;;320798
ASUS43 KMPX 241210
RWRMN 
WEATHER ROUNDUP FOR MINNESOTA
NATIONAL WEATHER SERVICE TWIN CITIES/CHANHASSEN MN
600 AM CST TUE NOV 24 2020


NOTE: "FAIR" INDICATES FEW OR NO CLOUDS BELOW 12,000 FEET WITH NO
SIGNIFICANT WEATHER AND/OR OBSTRUCTIONS TO VISIBILITY. N/A MEANS
CURRENT SKY AND/OR WEATHER CONDITIONS ARE NOT AVAILABLE.


MNZ071>073-080-081-089-090-097-098-241300-
   Southwest Minnesota   
  
CITY           SKY/WX    TMP DP  RH WIND       PRES   REMARKS
MONTEVIDEO     CLOUDY    34  34 100 S10G17    29.88F WCI  26          
GRANITE FALLS  CLOUDY    36  34  94 SE12      29.91S                  
CANBY          CLOUDY    36  35  94 E7        29.87F                  
MARSHALL       CLOUDY    35  33  92 S17G23    29.87F WCI  25          
REDWOOD FALLS  CLOUDY    34  33  96 SE15      29.91F FOG     WCI  24  
OLIVIA         CLOUDY    32  32 100 SE13      29.91F FOG     WCI  22  
PIPESTONE        N/A     34  34 100 MISG      29.84S FOG              
WORTHINGTON    CLOUDY    33  32  96 S10       29.88F WCI  25          
JACKSON        CLOUDY    32  32 100 SE10G16   29.90F WCI  24          
TRACY          CLOUDY    36  32  87 S13       29.88S                  
SLAYTON        CLOUDY    33  31  92 SE15      29.87F FOG     WCI  23  
$$

SKY/WX - Weather  TMP - Temperature  DP - Dew Point  RH - Relative Humidity
WIND - Wind Direction/Speed PRES - Barometric Pressure VSB - Visibility
WCI - Wind Chill Index E13G22 Wind - East Wind 13 mph/Gusts of 22 mph